Wind_Speed
7 7 7 6 7 7 7 7 8 7 7 6 6 6 6 6 6 6 6 6 7 7 7 7 7 7 7 8 8 9 9 10 10 10 10 10 10 10 10 10 11 12 12
7 6 7 7 6 6 7 7 7 7 7 6 5 5 5 5 6 6 6 6 6 7 7 7 7 7 7 8 8 9 9 9 10 10 10 11 10 11 10 11 11 12 12
7 7 7 6 7 7 7 7 7 7 7 6 5 5 5 5 5 5 5 5 6 7 7 7 7 7 7 8 8 9 9 9 9 9 10 10 10 10 11 11 12 12 13
7 6 6 6 7 7 6 6 6 6 6 5 5 5 5 5 5 5 5 5 5 6 6 6 7 7 7 7 8 8 8 8 8 9 10 11 11 12 12 12 13 13 14
5 5 6 6 6 5 5 6 6 5 5 5 5 5 5 5 5 5 5 5 5 6 6 6 7 7 7 7 7 7 7 8 9 10 10 11 12 12 12 13 14 14 15
6 6 6 5 5 5 5 6 6 5 4 4 4 5 5 5 5 5 5 5 5 6 6 7 7 7 7 8 8 8 8 9 9 10 10 11 11 12 12 13 15 15 15
6 6 6 6 6 5 5 5 5 5 5 4 4 5 5 5 5 5 5 5 6 6 7 7 8 8 8 9 9 9 10 10 10 10 10 11 11 12 13 14 14 15 15
7 7 6 6 6 6 5 5 5 5 5 5 5 5 6 6 6 5 5 4 5 7 7 8 8 9 9 10 10 10 11 11 10 11 11 11 12 13 13 14 14 15 15
7 7 7 7 6 6 6 5 5 5 5 5 5 5 6 6 6 6 5 5 6 7 7 8 8 9 10 10 10 11 11 10 11 11 12 12 12 13 14 14 15 15 15
8 8 8 7 7 6 6 5 5 5 5 5 6 6 6 6 6 6 6 6 7 7 8 9 9 10 10 10 10 11 11 11 11 12 12 12 13 13 13 14 15 15 16
9 9 8 8 8 7 6 6 6 6 5 5 6 6 6 6 7 7 7 8 8 9 9 9 10 10 10 11 11 11 11 12 12 12 12 13 13 13 14 15 16 16 17
10 10 9 9 8 8 7 7 7 6 7 7 7 7 7 8 8 8 8 9 9 9 10 10 10 10 10 11 11 11 11 12 12 13 13 14 14 15 15 16 17 18 18
10 10 10 9 8 8 8 8 8 8 8 8 8 8 8 8 8 9 9 10 10 10 11 11 11 11 12 12 12 12 13 13 13 14 14 15 15 16 17 17 18 19 19
11 10 9 9 9 9 9 9 9 9 9 9 9 8 8 9 9 10 10 10 11 11 11 12 12 12 13 13 14 14 14 14 14 15 16 16 17 17 18 19 19 19 20
11 10 10 11 10 10 9 9 9 10 10 10 10 10 10 11 11 11 11 10 11 12 12 12 13 14 14 14 14 15 15 16 16 16 17 17 18 19 19 20 20 21 22
11 11 11 11 11 11 11 10 10 11 11 11 11 11 11 12 12 12 12 12 12 13 13 13 14 15 15 15 15 15 16 17 17 18 18 18 19 20 20 21 21 22 23
11 11 11 12 12 12 12 11 11 11 12 12 12 12 13 13 13 12 12 13 14 14 14 14 15 16 16 16 16 16 17 17 17 18 18 19 20 21 21 22 23 24 24
13 13 13 13 13 13 13 13 12 12 12 12 13 13 13 14 14 14 14 14 15 15 15 15 15 16 16 17 17 17 17 17 17 18 19 19 20 21 22 23 24 25 25
15 15 14 14 14 14 15 14 14 13 13 14 14 14 14 15 15 15 15 15 15 16 16 16 16 17 17 17 17 17 18 18 18 19 19 20 21 22 23 24 25 26 26
15 15 15 15 15 15 15 16 16 15 15 15 15 15 15 16 16 16 15 15 16 17 17 17 18 18 18 18 18 18 19 19 19 20 21 22 23 24 25 25 26 27 27
15 16 16 17 16 16 16 16 17 17 16 16 16 16 16 17 17 16 16 16 17 17 18 18 18 18 18 18 19 19 20 21 21 22 23 24 25 26 26 27 28 28 29
17 17 18 18 17 17 17 17 17 17 18 17 17 17 17 18 18 18 18 18 18 18 18 19 19 19 19 20 20 21 22 23 23 24 25 26 26 27 28 29 30 30 31
19 19 19 19 18 18 18 19 19 19 20 19 19 19 19 19 19 18 18 18 18 19 19 19 19 20 20 21 22 23 24 24 25 26 27 27 28 29 30 31 32 32 33
20 20 20 20 20 20 20 20 21 20 20 20 19 19 19 19 18 18 19 20 20 20 21 21 22 21 21 22 23 24 24 25 26 27 28 29 30 31 32 32 33 34 35
20 20 20 20 21 20 20 20 20 20 20 20 20 20 19 19 19 19 20 20 21 22 22 22 22 23 23 24 24 25 25 26 27 28 30 30 31 32 33 34 35 36 37
20 20 21 21 21 21 21 21 21 20 20 20 21 21 20 21 21 21 21 21 22 22 23 23 24 25 25 26 27 27 28 28 29 30 31 32 33 34 34 36 37 37 37
Wind_Direction
281 274 269 268 275 281 280 282 288 284 280 279 278 282 280 278 277 278 275 275 274 274 276 276 272 274 276 276 275 276 274 269 267 266 266 264 263 263 266 265 267 264 263
280 274 271 270 275 279 275 278 282 280 281 280 277 281 281 277 279 278 276 275 276 277 278 279 274 271 274 278 278 277 274 272 267 266 265 260 259 261 264 268 270 268 265
275 270 276 278 276 278 279 276 282 284 281 276 270 277 285 282 282 276 275 275 279 282 279 284 282 275 277 278 277 275 271 272 269 268 265 264 263 266 267 270 270 271 271
286 278 281 283 282 281 278 282 281 283 282 278 273 275 278 278 279 275 277 277 283 287 281 284 284 281 280 278 277 275 273 274 277 273 269 270 270 269 270 273 274 273 272
289 281 288 288 288 287 282 286 286 283 284 280 275 273 272 274 277 276 280 281 286 288 286 284 281 281 284 278 277 276 278 279 280 279 276 276 274 274 275 277 277 280 277
287 284 287 289 290 287 286 283 286 282 280 280 276 274 273 274 276 276 281 283 287 287 287 285 282 281 283 284 283 283 285 288 287 283 282 279 276 276 279 282 282 283 280
285 280 284 287 286 285 288 283 280 279 274 278 280 277 277 280 279 277 278 281 283 286 293 291 290 289 287 293 288 288 288 291 292 289 287 283 280 281 283 286 287 287 282
279 276 280 284 287 286 287 285 281 279 270 273 278 278 278 280 280 280 277 276 279 287 295 293 292 290 290 292 292 289 288 289 289 291 289 287 286 287 287 288 289 288 285
273 274 274 278 282 283 284 283 277 277 272 269 271 275 278 279 278 281 279 281 287 293 295 295 294 290 288 290 292 292 291 289 289 292 293 291 290 290 290 291 291 289 289
273 273 273 276 276 275 277 280 273 273 272 270 270 273 279 280 280 286 283 286 291 293 294 298 298 295 292 291 292 293 293 292 291 292 294 295 294 294 295 296 296 295 294
271 273 274 275 273 271 273 276 270 263 268 272 276 278 278 278 280 284 286 286 289 291 293 298 300 298 296 293 292 293 292 292 291 292 294 296 297 297 297 297 299 299 298
270 271 273 273 269 271 273 273 268 264 267 271 275 281 283 283 285 286 289 289 289 290 292 295 297 297 296 295 295 295 295 293 292 293 294 295 296 297 298 299 300 300 299
270 271 269 267 268 272 274 271 267 265 267 271 275 281 283 285 287 288 291 289 289 290 291 293 294 296 295 294 294 295 295 293 292 293 293 294 295 296 298 298 299 300 300
268 266 264 264 268 270 270 269 267 268 270 270 273 279 284 286 287 289 291 289 287 288 290 293 295 296 295 294 294 292 292 291 290 291 292 294 294 295 297 297 298 300 301
267 265 265 268 269 268 268 270 269 270 272 272 272 277 282 285 288 291 289 286 288 291 289 293 296 297 297 295 293 292 291 290 291 292 293 295 296 296 296 296 296 299 300
261 265 267 269 267 268 269 268 267 268 271 273 274 278 282 284 286 288 289 291 291 291 294 296 296 297 298 296 294 293 292 292 292 293 293 294 296 297 297 297 298 299 299
261 265 268 269 271 269 268 268 267 269 271 273 276 278 281 285 286 288 289 291 293 293 294 295 297 300 300 298 298 297 295 293 293 294 295 296 296 297 297 298 300 300 299
265 265 267 271 272 271 270 268 268 269 270 271 274 277 281 284 286 287 288 289 292 293 295 297 299 301 301 300 300 298 297 295 295 296 297 298 298 298 298 299 301 301 300
265 266 269 273 273 270 269 269 269 269 268 270 272 276 280 283 284 285 286 287 290 292 294 295 297 298 299 299 299 298 297 296 296 297 299 300 301 301 301 301 304 304 302
264 266 268 273 275 271 269 268 269 269 269 269 272 275 279 282 285 287 287 288 290 291 293 294 295 296 297 299 299 299 297 296 297 297 299 300 301 302 302 303 305 305 303
264 266 268 271 273 271 271 270 270 269 271 271 271 274 278 282 285 287 288 289 291 293 294 296 296 295 296 298 300 299 298 298 298 297 298 299 301 302 303 304 305 305 304
266 267 269 270 271 271 271 272 270 270 273 274 273 275 277 279 281 284 286 289 292 294 296 297 296 295 294 295 297 298 299 299 298 297 298 299 301 302 303 304 305 305 304
267 268 269 269 268 270 271 272 271 272 274 274 274 275 277 281 281 282 283 287 291 294 297 298 297 296 295 296 296 298 299 298 298 298 298 299 300 302 303 303 304 305 305
267 268 268 268 267 268 271 272 273 273 273 275 275 275 277 278 280 282 283 287 289 292 294 294 295 295 294 294 296 298 298 299 299 299 299 300 301 303 304 304 305 306 306
268 268 266 267 268 269 271 274 274 273 270 272 274 275 277 278 280 281 283 287 290 291 291 292 294 294 295 295 296 298 298 299 300 301 301 301 301 302 304 304 304 305 306
268 267 268 268 270 270 271 274 275 273 271 273 275 276 278 280 281 283 285 287 289 291 290 290 291 293 294 295 296 297 297 298 299 301 301 301 302 302 303 304 305 305 305
Height
5867 5867 5866 5866 5866 5866 5866 5866 5865 5865 5864 5865 5865 5864 5864 5864 5864 5864 5864 5864 5864 5864 5864 5864 5864 5864 5864 5864 5864 5863 5863 5863 5863 5863 5863 5863 5863 5864 5864 5864 5864 5864 5864
5865 5865 5865 5865 5865 5865 5864 5864 5864 5863 5863 5863 5863 5863 5863 5863 5863 5863 5863 5863 5863 5863 5862 5862 5862 5862 5862 5862 5862 5861 5861 5860 5860 5860 5861 5861 5861 5861 5861 5861 5861 5861 5861
5864 5864 5864 5863 5863 5863 5863 5862 5862 5862 5862 5862 5861 5862 5862 5861 5861 5861 5861 5861 5861 5861 5860 5860 5860 5860 5860 5860 5859 5859 5859 5858 5858 5858 5858 5858 5858 5858 5858 5858 5858 5858 5858
5863 5863 5862 5862 5862 5862 5861 5861 5861 5861 5860 5860 5860 5860 5860 5860 5860 5860 5860 5860 5860 5859 5859 5859 5858 5858 5858 5858 5857 5857 5856 5856 5856 5856 5856 5855 5855 5855 5855 5855 5855 5854 5854
5862 5862 5861 5861 5860 5860 5860 5860 5860 5859 5859 5859 5859 5859 5859 5859 5859 5858 5858 5858 5858 5858 5857 5857 5857 5856 5856 5856 5855 5855 5854 5854 5853 5853 5853 5853 5853 5852 5852 5852 5851 5851 5850
5861 5861 5860 5860 5859 5859 5859 5859 5859 5858 5858 5858 5858 5857 5857 5857 5857 5857 5857 5857 5856 5856 5856 5855 5855 5854 5854 5854 5853 5853 5852 5852 5851 5851 5850 5850 5850 5849 5849 5849 5848 5847 5846
5860 5859 5859 5859 5859 5858 5858 5857 5857 5857 5857 5857 5857 5856 5856 5856 5856 5856 5856 5855 5855 5855 5854 5853 5853 5852 5852 5851 5851 5851 5850 5850 5849 5849 5848 5847 5847 5846 5846 5845 5844 5843 5842
5858 5858 5858 5858 5857 5857 5857 5856 5856 5855 5855 5855 5856 5855 5855 5855 5854 5854 5854 5854 5853 5853 5852 5852 5851 5850 5850 5849 5849 5848 5848 5847 5847 5846 5845 5845 5844 5843 5843 5842 5841 5840 5839
5857 5856 5856 5856 5856 5856 5855 5855 5855 5854 5854 5854 5854 5854 5854 5853 5853 5853 5853 5853 5852 5852 5851 5850 5849 5848 5848 5847 5846 5846 5846 5845 5845 5844 5843 5842 5841 5840 5840 5839 5837 5836 5835
5855 5855 5854 5854 5854 5854 5854 5853 5853 5853 5853 5853 5852 5852 5852 5852 5852 5852 5851 5851 5850 5850 5849 5848 5847 5846 5845 5845 5844 5844 5843 5843 5842 5841 5840 5839 5838 5837 5836 5835 5834 5832 5831
5853 5853 5853 5852 5852 5852 5852 5852 5851 5851 5851 5851 5851 5851 5850 5850 5850 5850 5849 5849 5849 5848 5847 5846 5845 5844 5843 5843 5842 5841 5841 5840 5839 5839 5838 5837 5835 5834 5833 5832 5830 5829 5827
5851 5851 5851 5850 5850 5850 5850 5850 5850 5850 5849 5849 5849 5849 5849 5848 5848 5848 5847 5847 5846 5846 5845 5844 5843 5843 5842 5841 5840 5839 5838 5837 5837 5836 5835 5834 5832 5831 5830 5828 5827 5825 5823
5849 5848 5848 5848 5848 5848 5848 5848 5848 5848 5847 5848 5847 5847 5847 5846 5846 5845 5845 5844 5844 5843 5843 5842 5841 5840 5839 5838 5837 5836 5835 5834 5833 5832 5831 5830 5829 5827 5826 5824 5823 5821 5819
5846 5846 5846 5846 5846 5846 5846 5846 5846 5845 5845 5845 5845 5845 5844 5844 5843 5843 5842 5842 5841 5841 5840 5839 5838 5837 5836 5835 5834 5833 5832 5831 5830 5828 5827 5826 5825 5823 5822 5820 5818 5816 5814
5844 5843 5843 5843 5843 5843 5843 5843 5843 5843 5843 5842 5842 5842 5842 5841 5840 5840 5839 5839 5839 5838 5837 5836 5835 5834 5833 5832 5831 5829 5828 5827 5826 5824 5823 5822 5820 5819 5817 5815 5813 5811 5809
5841 5841 5841 5841 5841 5840 5840 5840 5840 5840 5840 5840 5839 5839 5839 5838 5838 5837 5836 5836 5835 5835 5834 5833 5832 5830 5829 5828 5826 5825 5824 5822 5821 5820 5818 5817 5815 5814 5812 5810 5808 5806 5803
5838 5838 5838 5838 5838 5838 5837 5837 5837 5837 5837 5837 5836 5836 5836 5835 5834 5834 5833 5833 5832 5831 5830 5829 5828 5827 5825 5824 5822 5820 5819 5817 5816 5815 5813 5812 5810 5809 5807 5805 5803 5800 5797
5834 5835 5835 5835 5834 5834 5834 5834 5834 5833 5833 5833 5833 5833 5832 5832 5831 5830 5830 5829 5828 5827 5827 5825 5824 5823 5821 5820 5818 5816 5814 5813 5812 5810 5809 5807 5805 5804 5801 5799 5797 5794 5791
5831 5831 5831 5831 5831 5831 5831 5830 5830 5830 5830 5829 5829 5829 5829 5828 5827 5827 5826 5825 5824 5823 5822 5821 5820 5819 5817 5815 5814 5812 5810 5809 5807 5806 5804 5802 5800 5798 5796 5793 5791 5788 5785
5827 5827 5827 5827 5827 5826 5826 5826 5826 5826 5826 5826 5825 5825 5824 5824 5823 5822 5822 5821 5820 5819 5818 5817 5815 5814 5812 5811 5809 5807 5806 5804 5802 5801 5799 5797 5795 5792 5790 5787 5784 5781 5778
5822 5822 5822 5822 5822 5822 5822 5822 5822 5822 5822 5821 5821 5821 5820 5819 5819 5818 5817 5817 5816 5815 5813 5812 5811 5809 5807 5806 5804 5803 5801 5799 5797 5795 5793 5791 5789 5786 5783 5781 5777 5774 5770
5817 5817 5818 5818 5817 5817 5817 5817 5817 5817 5817 5817 5816 5816 5815 5815 5814 5813 5813 5812 5811 5810 5809 5807 5805 5804 5803 5801 5799 5798 5796 5794 5792 5790 5787 5785 5782 5780 5776 5774 5770 5766 5763
5812 5812 5812 5812 5812 5812 5812 5812 5812 5812 5812 5811 5811 5811 5811 5810 5809 5808 5808 5807 5806 5804 5803 5802 5800 5799 5798 5796 5794 5792 5790 5788 5786 5783 5780 5778 5775 5772 5769 5766 5762 5758 5754
5806 5806 5806 5806 5806 5806 5806 5806 5806 5806 5806 5806 5806 5806 5805 5805 5804 5803 5803 5802 5801 5799 5798 5797 5795 5794 5792 5790 5788 5786 5784 5781 5779 5776 5773 5771 5768 5765 5761 5757 5753 5749 5745
5800 5800 5800 5800 5800 5800 5800 5800 5800 5800 5800 5800 5800 5800 5800 5799 5799 5798 5797 5796 5795 5793 5792 5791 5789 5788 5786 5784 5781 5779 5777 5775 5772 5769 5766 5763 5760 5756 5752 5749 5744 5740 5736
5794 5794 5794 5794 5794 5794 5794 5794 5793 5793 5794 5794 5794 5794 5794 5793 5793 5792 5791 5790 5789 5787 5786 5784 5783 5781 5779 5777 5775 5772 5770 5768 5765 5762 5759 5755 5752 5748 5744 5740 5735 5730 5726